Starlink 31140

operational
NORAD ID: 58767 Int'l Des: 2024-011 Owner: SPXS Country: US Constellation: starlink
LEOCIRCULAR

Über Starlink 31140

Beschreibung wird geladen...

Live-Position

3D-Globus wird geladen...

Nächste Überflüge

Höhenverlauf

Altitude vs Time

uPlot chart will show altitude changes over time

Zweizeiliger Elementsatz

1 58767U 24011C 25257.81577725 -.00001038 00000-0 -22919-4 0 9995
2 58767 53.1608 110.5623 0001640 93.6973 266.4215 15.30186655 93349
Epoch: 14. Sept. 2025 • Age: 26 hours

Aktueller Status

Höhe 485.7 km
Geschwindigkeit 7.62 km/s
Subsatellitenpunkt -31.74°S, 6.44°W
Startdatum 14. Jan. 2024
Alter 1.6 years
Typ internet

Technische Details

Klassifizierung Payload
Masse 730.00 kg
Trockenmasse 700.00 kg
Gesamtmasse 730.00 kg
Länge 0.30 m
Durchmesser 4.10 m
Spannweite 29.00 m
Form Box + pan
Hersteller SPXS
Bus-Typ Starlink V2M
Phasenstatus In Orbit
Besitzer/Staat SPXS/US

Große Konstellationen

Loading constellations...